,,PA_Meas_PMT16A,,PR_Meas_QMR101_102,,RH_Meas_QMH101,,SR_Meas_QMS101,,TA_Meas_QMH101,,GenWind,,GenWind,
time,status,PA,status,PR,status,RH,status,SR,status,TA,status,DirAvg,status,SpdAvg,
2013-09-28, 00:00:04,VALID,919.269,VALID,0,VALID,91.7249,VALID,0,VALID,19.4118,VALID,125,VALID,0,
2013-09-28, 00:01:04,VALID,919.249,VALID,0,VALID,91.7554,VALID,0,VALID,19.3923,VALID,125,VALID,0,
2013-09-28, 00:02:04,VALID,919.262,VALID,0,VALID,91.7707,VALID,0,VALID,19.3728,VALID,125,VALID,0,
2013-09-28, 00:03:04,VALID,919.26,VALID,0,VALID,91.6487,VALID,0,VALID,19.3128,VALID,125,VALID,0,
2013-09-28, 00:04:04,VALID,919.243,VALID,0,VALID,91.8545,VALID,0,VALID,19.2948,VALID,125,VALID,0,
2013-09-28, 00:05:04,VALID,919.233,VALID,0,VALID,91.6716,VALID,0,VALID,19.2348,VALID,125,VALID,0,
2013-09-28, 00:06:04,VALID,919.222,VALID,0,VALID,92.1595,VALID,0,VALID,19.2348,VALID,125,VALID,0,
2013-09-28, 00:07:04,VALID,919.213,VALID,0,VALID,92.2891,VALID,0,VALID,19.2363,VALID,125,VALID,0,
2013-09-28, 00:08:04,VALID,919.185,VALID,0,VALID,92.4187,VALID,0,VALID,19.2753,VALID,125,VALID,0,
2013-09-28, 00:09:04,VALID,919.191,VALID,0,VALID,92.1976,VALID,0,VALID,19.2558,VALID,125,VALID,0,
2013-09-28, 00:10:04,VALID,919.19,VALID,0,VALID,92.2052,VALID,0,VALID,19.2543,VALID,135,VALID,0,
2013-09-28, 00:11:04,VALID,919.197,VALID,0,VALID,91.9689,VALID,0,VALID,19.2363,VALID,135,VALID,0,
2013-09-28, 00:12:04,VALID,919.151,VALID,0,VALID,91.6868,VALID,0,VALID,19.1958,VALID,135,VALID,0,
2013-09-28, 00:13:04,VALID,919.182,VALID,0,VALID,91.6411,VALID,0,VALID,19.1763,VALID,135,VALID,0,
2013-09-28, 00:14:04,VALID,919.195,VALID,0,VALID,91.9003,VALID,0,VALID,19.1778,VALID,135,VALID,0,
2013-09-28, 00:15:04,VALID,919.155,VALID,0,VALID,92.3501,VALID,0,VALID,19.2168,VALID,135,VALID,0,
2013-09-28, 00:16:04,VALID,919.152,VALID,0,VALID,92.6245,VALID,0,VALID,19.1763,VALID,135,VALID,0,
2013-09-28, 00:17:04,VALID,919.129,VALID,0,VALID,93.0438,VALID,0,VALID,19.2363,VALID,135,VALID,0,
2013-09-28, 00:18:04,VALID,919.112,VALID,0,VALID,93.1505,VALID,0,VALID,19.2168,VALID,135,VALID,0,
2013-09-28, 00:19:04,VALID,919.081,VALID,0,VALID,93.2344,VALID,0,VALID,19.2363,VALID,135,VALID,0,
2013-09-28, 00:20:04,VALID,919.058,VALID,0,VALID,93.3182,VALID,0,VALID,19.2348,VALID,135,VALID,0,
2013-09-28, 00:21:04,VALID,919.051,VALID,0,VALID,93.3411,VALID,0,VALID,19.2753,VALID,135,VALID,0,
2013-09-28, 00:22:04,VALID,919.037,VALID,0,VALID,93.242,VALID,0,VALID,19.2753,VALID,135,VALID,0,
2013-09-28, 00:23:04,VALID,919.027,VALID,0,VALID,93.2039,VALID,0,VALID,19.2948,VALID,135,VALID,0,
2013-09-28, 00:24:04,VALID,919.052,VALID,0,VALID,93.2725,VALID,0,VALID,19.2933,VALID,135,VALID,0,
2013-09-28, 00:25:04,VALID,919.016,VALID,0,VALID,93.2039,VALID,0,VALID,19.3143,VALID,135,VALID,0,
2013-09-28, 00:26:04,VALID,918.988,VALID,0,VALID,92.9447,VALID,0,VALID,19.2948,VALID,135,VALID,0,
2013-09-28, 00:27:04,VALID,918.978,VALID,0,VALID,92.7693,VALID,0,VALID,19.2948,VALID,135,VALID,0,
2013-09-28, 00:28:04,VALID,918.933,VALID,0,VALID,92.9066,VALID,0,VALID,19.3338,VALID,135,VALID,0,
2013-09-28, 00:29:04,VALID,918.924,VALID,0,VALID,92.9904,VALID,0,VALID,19.3728,VALID,135,VALID,0,
2013-09-28, 00:30:04,VALID,918.889,VALID,0,VALID,92.9218,VALID,0,VALID,19.3923,VALID,135,VALID,0,
2013-09-28, 00:31:04,VALID,918.885,VALID,0,VALID,92.7541,VALID,0,VALID,19.4313,VALID,135,VALID,0,
2013-09-28, 00:32:04,VALID,918.867,VALID,0,VALID,92.4492,VALID,0,VALID,19.4508,VALID,135,VALID,0,
2013-09-28, 00:33:04,VALID,918.862,VALID,0,VALID,90.0554,VALID,0,VALID,19.3338,VALID,135,VALID,0,
2013-09-28, 00:34:04,VALID,918.83,VALID,0,VALID,90.7034,VALID,0,VALID,19.2168,VALID,135,VALID,0,
2013-09-28, 00:35:04,VALID,918.804,VALID,0,VALID,92.0604,VALID,0,VALID,19.1373,VALID,135,VALID,0,
2013-09-28, 00:36:04,VALID,918.763,VALID,0,VALID,92.8151,VALID,0,VALID,19.1193,VALID,135,VALID,0,
2013-09-28, 00:37:04,VALID,918.744,VALID,0,VALID,93.1505,VALID,0,VALID,19.1193,VALID,135,VALID,0,
2013-09-28, 00:38:04,VALID,918.649,VALID,0,VALID,92.8837,VALID,0,VALID,19.0998,VALID,135,VALID,0,
2013-09-28, 00:39:04,VALID,918.68,VALID,0,VALID,92.4949,VALID,0,VALID,19.0413,VALID,135,VALID,0,
2013-09-28, 00:40:04,VALID,918.63,VALID,0,VALID,92.8075,VALID,0,VALID,19.0413,VALID,135,VALID,0,
2013-09-28, 00:41:04,VALID,918.611,VALID,0,VALID,93.1505,VALID,0,VALID,19.0608,VALID,135,VALID,0,
2013-09-28, 00:42:04,VALID,918.637,VALID,0,VALID,93.4555,VALID,0,VALID,19.0983,VALID,135,VALID,0,
2013-09-28, 00:43:04,VALID,918.632,VALID,0,VALID,93.3335,VALID,0,VALID,19.1778,VALID,135,VALID,0,
2013-09-28, 00:44:04,VALID,918.642,VALID,0,VALID,92.5102,VALID,0,VALID,19.1583,VALID,135,VALID,0,
2013-09-28, 00:45:04,VALID,918.632,VALID,0,VALID,92.4949,VALID,0,VALID,19.1583,VALID,135,VALID,0,
2013-09-28, 00:46:04,VALID,918.627,VALID,0,VALID,92.5025,VALID,0,VALID,19.1388,VALID,135,VALID,0,
2013-09-28, 00:47:04,VALID,918.595,VALID,0,VALID,92.4949,VALID,0,VALID,19.0983,VALID,135,VALID,0,
2013-09-28, 00:48:04,VALID,918.575,VALID,0,VALID,92.5406,VALID,0,VALID,19.0998,VALID,135,VALID,0,
2013-09-28, 00:49:05,VALID,918.582,VALID,0,VALID,92.4339,VALID,0,VALID,19.0413,VALID,135,VALID,0,
2013-09-28, 00:50:05,VALID,918.573,VALID,0,VALID,92.7693,VALID,0,VALID,19.0203,VALID,135,VALID,0,
2013-09-28, 00:51:05,VALID,918.586,VALID,0,VALID,92.9904,VALID,0,VALID,19.0413,VALID,135,VALID,0,
2013-09-28, 00:52:05,VALID,918.582,VALID,0,VALID,93.1658,VALID,0,VALID,19.0023,VALID,135,VALID,0,
2013-09-28, 00:53:05,VALID,918.57,VALID,0,VALID,93.242,VALID,0,VALID,19.0023,VALID,135,VALID,0,
2013-09-28, 00:54:05,VALID,918.573,VALID,0,VALID,93.2801,VALID,0,VALID,18.9424,VALID,135,VALID,0,
2013-09-28, 00:55:05,VALID,918.535,VALID,0,VALID,93.3868,VALID,0,VALID,18.9243,VALID,135,VALID,0,
2013-09-28, 00:56:05,VALID,918.498,VALID,0,VALID,93.5088,VALID,0,VALID,18.8644,VALID,135,VALID,0,
2013-09-28, 00:57:05,VALID,918.507,VALID,0,VALID,93.6994,VALID,0,VALID,18.8463,VALID,135,VALID,0,
2013-09-28, 00:58:05,VALID,918.477,VALID,0,VALID,94.1416,VALID,0,VALID,18.8463,VALID,135,VALID,0,
2013-09-28, 00:59:05,VALID,918.476,VALID,0,VALID,94.1721,VALID,0,VALID,18.8268,VALID,135,VALID,0,
2013-09-28, 01:00:05,VALID,918.446,VALID,0,VALID,94.233,VALID,0.107441,VALID,18.7864,VALID,135,VALID,0,
2013-09-28, 01:01:05,VALID,918.459,VALID,0,VALID,94.294,VALID,0,VALID,18.7878,VALID,135,VALID,0,
2013-09-28, 01:02:05,VALID,918.455,VALID,0,VALID,94.4389,VALID,0,VALID,18.8073,VALID,135,VALID,0,
2013-09-28, 01:03:05,VALID,918.455,VALID,0,VALID,94.3931,VALID,0,VALID,18.7864,VALID,135,VALID,0,
2013-09-28, 01:04:05,VALID,918.447,VALID,0,VALID,94.4541,VALID,0,VALID,18.7878,VALID,135,VALID,0,
2013-09-28, 01:05:05,VALID,918.401,VALID,0,VALID,94.416,VALID,0,VALID,18.7683,VALID,135,VALID,0,
2013-09-28, 01:06:05,VALID,918.376,VALID,0,VALID,94.416,VALID,0,VALID,18.7683,VALID,135,VALID,0,
2013-09-28, 01:07:05,VALID,918.353,VALID,0,VALID,94.4617,VALID,0,VALID,18.7293,VALID,135,VALID,0,
2013-09-28, 01:08:05,VALID,918.332,VALID,0,VALID,94.4617,VALID,0,VALID,18.7293,VALID,135,VALID,0,
2013-09-28, 01:09:05,VALID,918.302,VALID,0,VALID,94.599,VALID,0,VALID,18.7697,VALID,135,VALID,0,
2013-09-28, 01:10:05,VALID,918.3,VALID,0,VALID,94.6981,VALID,0,VALID,18.7683,VALID,135,VALID,0,
2013-09-28, 01:11:05,VALID,918.28,VALID,0,VALID,94.7362,VALID,0,VALID,18.7488,VALID,130,VALID,0,
2013-09-28, 01:12:05,VALID,918.245,VALID,0,VALID,94.82,VALID,0,VALID,18.7488,VALID,124,VALID,0,
2013-09-28, 01:13:05,VALID,918.247,VALID,0,VALID,95.064,VALID,0,VALID,18.7878,VALID,124,VALID,0,
2013-09-28, 01:14:05,VALID,918.215,VALID,0,VALID,95.1783,VALID,0,VALID,18.7878,VALID,122,VALID,0,
2013-09-28, 01:15:05,VALID,918.217,VALID,0,VALID,95.2317,VALID,0,VALID,18.7878,VALID,114,VALID,0,
2013-09-28, 01:16:05,VALID,918.215,VALID,0,VALID,95.247,VALID,0,VALID,18.8087,VALID,119,VALID,0,
2013-09-28, 01:17:05,VALID,918.217,VALID,0,VALID,95.2775,VALID,0,VALID,18.8073,VALID,124,VALID,0,
2013-09-28, 01:18:05,VALID,918.218,VALID,0,VALID,95.2546,VALID,0,VALID,18.7878,VALID,135,VALID,0,
2013-09-28, 01:19:05,VALID,918.227,VALID,0,VALID,95.0716,VALID,0,VALID,18.7683,VALID,151,VALID,0,
2013-09-28, 01:20:05,VALID,918.191,VALID,0,VALID,94.9649,VALID,0,VALID,18.7683,VALID,149,VALID,0,
2013-09-28, 01:21:05,VALID,918.159,VALID,0,VALID,94.8887,VALID,0,VALID,18.7279,VALID,118,VALID,0,
2013-09-28, 01:22:05,VALID,918.147,VALID,0,VALID,94.9039,VALID,0,VALID,18.7683,VALID,109,VALID,0,
2013-09-28, 01:23:05,VALID,918.123,VALID,0,VALID,94.9039,VALID,0,VALID,18.7683,VALID,106,VALID,0,
2013-09-28, 01:24:05,VALID,918.133,VALID,0,VALID,94.9268,VALID,0,VALID,18.7683,VALID,119,VALID,0,
2013-09-28, 01:25:05,VALID,918.126,VALID,0,VALID,94.9801,VALID,0,VALID,18.7878,VALID,135,VALID,0,
2013-09-28, 01:26:05,VALID,918.111,VALID,0,VALID,94.9725,VALID,0,VALID,18.7878,VALID,149,VALID,0,
2013-09-28, 01:27:05,VALID,918.115,VALID,0,VALID,94.9268,VALID,0,VALID,18.7878,VALID,150,VALID,0,
2013-09-28, 01:28:05,VALID,918.099,VALID,0,VALID,94.8734,VALID,0,VALID,18.7878,VALID,167,VALID,0,
2013-09-28, 01:29:05,VALID,918.066,VALID,0,VALID,94.8353,VALID,0,VALID,18.7683,VALID,150,VALID,0,
2013-09-28, 01:30:05,VALID,918.056,VALID,0,VALID,94.8429,VALID,0,VALID,18.7683,VALID,139,VALID,0,
2013-09-28, 01:31:05,VALID,918.048,VALID,0,VALID,94.8887,VALID,0,VALID,18.8073,VALID,137,VALID,0,
2013-09-28, 01:32:05,VALID,918.061,VALID,0,VALID,94.8429,VALID,0,VALID,18.8268,VALID,137,VALID,0,
2013-09-28, 01:33:05,VALID,918.085,VALID,0,VALID,94.7591,VALID,0,VALID,18.8254,VALID,137,VALID,0,
2013-09-28, 01:34:05,VALID,918.085,VALID,0,VALID,94.7438,VALID,0,VALID,18.8658,VALID,237,VALID,0,
2013-09-28, 01:35:05,VALID,918.028,VALID,0,VALID,94.8658,VALID,0.107441,VALID,18.9243,VALID,237,VALID,0,
2013-09-28, 01:36:05,VALID,918.017,VALID,0,VALID,94.7972,VALID,0,VALID,18.9229,VALID,186,VALID,0,
2013-09-28, 01:37:05,VALID,918.015,VALID,0,VALID,94.4617,VALID,0,VALID,18.9048,VALID,186,VALID,0,
2013-09-28, 01:38:05,VALID,917.992,VALID,0,VALID,94.2864,VALID,0,VALID,18.8254,VALID,186,VALID,0,
2013-09-28, 01:39:05,VALID,918.001,VALID,0,VALID,94.3017,VALID,0,VALID,18.8268,VALID,186,VALID,0,
2013-09-28, 01:40:05,VALID,918.022,VALID,0,VALID,94.3321,VALID,0,VALID,18.8268,VALID,186,VALID,0,
2013-09-28, 01:41:05,VALID,918.013,VALID,0,VALID,94.1416,VALID,0,VALID,18.8073,VALID,209,VALID,0,
2013-09-28, 01:42:05,VALID,917.986,VALID,0,VALID,94.2635,VALID,0,VALID,18.8073,VALID,223,VALID,0,
2013-09-28, 01:43:05,VALID,917.958,VALID,0,VALID,94.1797,VALID,0,VALID,18.8073,VALID,223,VALID,0,
2013-09-28, 01:44:05,VALID,917.92,VALID,0,VALID,93.829,VALID,0,VALID,18.7683,VALID,223,VALID,0,
2013-09-28, 01:45:05,VALID,917.881,VALID,0,VALID,93.7147,VALID,0,VALID,18.7098,VALID,205,VALID,0,
2013-09-28, 01:46:05,VALID,917.836,VALID,0,VALID,93.8138,VALID,0,VALID,18.6513,VALID,186,VALID,0,
2013-09-28, 01:47:05,VALID,917.816,VALID,0,VALID,94.0043,VALID,0,VALID,18.6319,VALID,186,VALID,0,
2013-09-28, 01:48:05,VALID,917.798,VALID,0,VALID,94.073,VALID,0,VALID,18.5929,VALID,186,VALID,0,
2013-09-28, 01:49:05,VALID,917.774,VALID,0,VALID,93.6994,VALID,0,VALID,18.4954,VALID,186,VALID,0,
2013-09-28, 01:50:05,VALID,917.78,VALID,0,VALID,94.2483,VALID,0,VALID,18.4968,VALID,186,VALID,0,
2013-09-28, 01:51:05,VALID,917.789,VALID,0,VALID,94.7819,VALID,0,VALID,18.5344,VALID,186,VALID,0,
2013-09-28, 01:52:05,VALID,917.772,VALID,0,VALID,94.7591,VALID,0,VALID,18.5344,VALID,186,VALID,0,
2013-09-28, 01:53:05,VALID,917.752,VALID,0,VALID,94.9496,VALID,0,VALID,18.6124,VALID,186,VALID,0,
2013-09-28, 01:54:05,VALID,917.73,VALID,0,VALID,94.9573,VALID,0,VALID,18.6319,VALID,186,VALID,0,
2013-09-28, 01:55:05,VALID,917.682,VALID,0,VALID,94.8658,VALID,0,VALID,18.6319,VALID,186,VALID,0,
2013-09-28, 01:56:05,VALID,917.699,VALID,0,VALID,94.8353,VALID,0,VALID,18.6528,VALID,186,VALID,0,
2013-09-28, 01:57:05,VALID,917.686,VALID,0,VALID,94.8963,VALID,0,VALID,18.6708,VALID,186,VALID,0,
2013-09-28, 01:58:05,VALID,917.691,VALID,0,VALID,94.294,VALID,0,VALID,18.5929,VALID,186,VALID,0,
2013-09-28, 01:59:05,VALID,917.662,VALID,0,VALID,94.3169,VALID,0,VALID,18.5539,VALID,186,VALID,0,
2013-09-28, 02:00:05,VALID,917.637,VALID,0,VALID,94.2026,VALID,0,VALID,18.4954,VALID,186,VALID,0,
2013-09-28, 02:01:05,VALID,917.59,VALID,0,VALID,94.9573,VALID,0,VALID,18.6319,VALID,186,VALID,0,
2013-09-28, 02:02:05,VALID,917.612,VALID,0,VALID,95.1174,VALID,0,VALID,18.7488,VALID,186,VALID,0,
2013-09-28, 02:03:05,VALID,917.622,VALID,0,VALID,95.003,VALID,0,VALID,18.8073,VALID,172,VALID,0,
2013-09-28, 02:04:05,VALID,917.581,VALID,0,VALID,94.8048,VALID,0,VALID,18.8268,VALID,141,VALID,0,
2013-09-28, 02:05:05,VALID,917.595,VALID,0,VALID,94.4389,VALID,0,VALID,18.8073,VALID,141,VALID,0,
2013-09-28, 02:06:05,VALID,917.561,VALID,0,VALID,94.2178,VALID,0,VALID,18.7878,VALID,141,VALID,0,
2013-09-28, 02:07:05,VALID,917.565,VALID,0,VALID,94.0577,VALID,0,VALID,18.7279,VALID,141,VALID,0,
2013-09-28, 02:08:05,VALID,917.512,VALID,0,VALID,93.9662,VALID,0,VALID,18.6903,VALID,141,VALID,0,
2013-09-28, 02:09:05,VALID,917.547,VALID,0,VALID,94.1263,VALID,0,VALID,18.6304,VALID,141,VALID,0,
2013-09-28, 02:10:05,VALID,917.511,VALID,0,VALID,94.3855,VALID,0,VALID,18.6333,VALID,141,VALID,0,
2013-09-28, 02:11:05,VALID,917.499,VALID,0,VALID,94.5532,VALID,0,VALID,18.5539,VALID,142,VALID,0,
2013-09-28, 02:12:05,VALID,917.502,VALID,0,VALID,94.5913,VALID,0,VALID,18.5149,VALID,148,VALID,0,
2013-09-28, 02:13:05,VALID,917.477,VALID,0,VALID,94.6523,VALID,0,VALID,18.4759,VALID,148,VALID,0,
2013-09-28, 02:14:05,VALID,917.474,VALID,0,VALID,94.6752,VALID,0,VALID,18.4564,VALID,148,VALID,0,
2013-09-28, 02:15:05,VALID,917.502,VALID,0,VALID,94.8505,VALID,0,VALID,18.4564,VALID,148,VALID,0,
2013-09-28, 02:16:05,VALID,917.469,VALID,0,VALID,94.9649,VALID,0.107441,VALID,18.4564,VALID,134,VALID,0,
2013-09-28, 02:17:05,VALID,917.448,VALID,0,VALID,95.1555,VALID,0,VALID,18.4968,VALID,139,VALID,0,
2013-09-28, 02:18:05,VALID,917.467,VALID,0,VALID,95.2775,VALID,0,VALID,18.4759,VALID,139,VALID,0,
2013-09-28, 02:19:05,VALID,917.445,VALID,0,VALID,95.2622,VALID,0,VALID,18.4564,VALID,154,VALID,0,
2013-09-28, 02:20:05,VALID,917.436,VALID,0,VALID,95.2698,VALID,0,VALID,18.4759,VALID,154,VALID,0,
2013-09-28, 02:21:05,VALID,917.442,VALID,0,VALID,95.3384,VALID,0,VALID,18.5149,VALID,154,VALID,0,
2013-09-28, 02:22:05,VALID,917.444,VALID,0,VALID,95.3689,VALID,0,VALID,18.5748,VALID,151,VALID,0,
2013-09-28, 02:23:05,VALID,917.444,VALID,0,VALID,95.3461,VALID,0,VALID,18.5734,VALID,142,VALID,0,
2013-09-28, 02:24:05,VALID,917.442,VALID,0,VALID,95.2546,VALID,0,VALID,18.6333,VALID,149,VALID,0,
2013-09-28, 02:25:05,VALID,917.465,VALID,0,VALID,95.1479,VALID,0,VALID,18.6708,VALID,146,VALID,0,
2013-09-28, 02:26:05,VALID,917.478,VALID,0,VALID,95.0411,VALID,0,VALID,18.6918,VALID,136,VALID,0,
2013-09-28, 02:27:05,VALID,917.472,VALID,0,VALID,94.8887,VALID,0,VALID,18.7098,VALID,133,VALID,0,
2013-09-28, 02:28:05,VALID,917.503,VALID,0,VALID,94.7514,VALID,0,VALID,18.7503,VALID,133,VALID,0,
2013-09-28, 02:29:05,VALID,917.458,VALID,0,VALID,94.4465,VALID,0.107441,VALID,18.7084,VALID,136,VALID,0,
2013-09-28, 02:30:05,VALID,917.457,VALID,0,VALID,94.3245,VALID,0.107441,VALID,18.7279,VALID,154,VALID,0,
2013-09-28, 02:31:05,VALID,917.434,VALID,0,VALID,94.3321,VALID,0.107441,VALID,18.7474,VALID,154,VALID,0,
2013-09-28, 02:32:05,VALID,917.385,VALID,0,VALID,94.1721,VALID,0.107441,VALID,18.7474,VALID,143,VALID,0,
2013-09-28, 02:33:05,VALID,917.423,VALID,0,VALID,94.0196,VALID,0,VALID,18.7488,VALID,133,VALID,0,
2013-09-28, 02:34:05,VALID,917.388,VALID,0,VALID,94.0196,VALID,0.107441,VALID,18.7474,VALID,133,VALID,0,
2013-09-28, 02:35:05,VALID,917.381,VALID,0,VALID,93.9815,VALID,0.107441,VALID,18.7279,VALID,133,VALID,0,
2013-09-28, 02:36:05,VALID,917.417,VALID,0,VALID,93.9205,VALID,0,VALID,18.7488,VALID,133,VALID,0,
2013-09-28, 02:37:05,VALID,917.411,VALID,0,VALID,93.8671,VALID,0.107441,VALID,18.7084,VALID,133,VALID,0,
2013-09-28, 02:38:05,VALID,917.428,VALID,0,VALID,93.7451,VALID,0,VALID,18.7293,VALID,133,VALID,0,
2013-09-28, 02:39:05,VALID,917.408,VALID,0,VALID,93.6765,VALID,0,VALID,18.7098,VALID,133,VALID,0,
2013-09-28, 02:40:05,VALID,917.418,VALID,0,VALID,93.8824,VALID,0,VALID,18.7474,VALID,133,VALID,0,
2013-09-28, 02:41:05,VALID,917.415,VALID,0,VALID,94.0425,VALID,0,VALID,18.8059,VALID,133,VALID,0,
2013-09-28, 02:42:05,VALID,917.448,VALID,0,VALID,93.8747,VALID,0,VALID,18.8658,VALID,133,VALID,0,
2013-09-28, 02:43:05,VALID,917.432,VALID,0,VALID,93.8671,VALID,0.107441,VALID,18.9229,VALID,133,VALID,0,
2013-09-28, 02:44:05,VALID,917.391,VALID,0,VALID,93.5622,VALID,0,VALID,18.9814,VALID,133,VALID,0,
2013-09-28, 02:45:05,VALID,917.407,VALID,0,VALID,93.2115,VALID,0,VALID,19.0203,VALID,133,VALID,0,
2013-09-28, 02:46:05,VALID,917.368,VALID,0,VALID,92.9294,VALID,0,VALID,19.0008,VALID,133,VALID,0,
2013-09-28, 02:47:05,VALID,917.356,VALID,0,VALID,92.5406,VALID,0,VALID,18.9814,VALID,133,VALID,0,
2013-09-28, 02:48:05,VALID,917.307,VALID,0,VALID,92.3348,VALID,0.107441,VALID,18.9424,VALID,133,VALID,0,
2013-09-28, 02:49:05,VALID,917.3,VALID,0,VALID,92.3729,VALID,0.107441,VALID,18.9034,VALID,133,VALID,0,
2013-09-28, 02:50:05,VALID,917.298,VALID,0,VALID,92.4568,VALID,0.107441,VALID,18.8839,VALID,133,VALID,0,
2013-09-28, 02:51:05,VALID,917.319,VALID,0,VALID,92.594,VALID,0,VALID,18.8268,VALID,133,VALID,0,
2013-09-28, 02:52:05,VALID,917.342,VALID,0,VALID,92.7389,VALID,0.107441,VALID,18.7864,VALID,134,VALID,0,
2013-09-28, 02:53:05,VALID,917.354,VALID,0,VALID,92.8837,VALID,0.107441,VALID,18.7683,VALID,133,VALID,0,
2013-09-28, 02:54:05,VALID,917.385,VALID,0,VALID,93.0057,VALID,0.107441,VALID,18.7084,VALID,133,VALID,0,
2013-09-28, 02:55:05,VALID,917.374,VALID,0,VALID,93.1429,VALID,0,VALID,18.6889,VALID,146,VALID,0,
2013-09-28, 02:56:05,VALID,917.364,VALID,0,VALID,93.2572,VALID,0,VALID,18.6499,VALID,144,VALID,0,
2013-09-28, 02:57:05,VALID,917.361,VALID,0,VALID,93.3106,VALID,0.107441,VALID,18.6109,VALID,146,VALID,0,
2013-09-28, 02:58:05,VALID,917.362,VALID,0,VALID,93.2877,VALID,0,VALID,18.572,VALID,144,VALID,0,
2013-09-28, 02:59:05,VALID,917.359,VALID,0,VALID,93.2268,VALID,0,VALID,18.5344,VALID,156,VALID,0,
2013-09-28, 03:00:05,VALID,917.347,VALID,0,VALID,93.3945,VALID,0,VALID,18.5344,VALID,150,VALID,0,
2013-09-28, 03:01:05,VALID,917.348,VALID,0,VALID,93.6842,VALID,0,VALID,18.5344,VALID,133,VALID,0,
2013-09-28, 03:02:05,VALID,917.37,VALID,0,VALID,94.0653,VALID,0,VALID,18.5748,VALID,133,VALID,0,
2013-09-28, 03:03:05,VALID,917.365,VALID,0,VALID,94.2178,VALID,0,VALID,18.5734,VALID,127,VALID,0,
2013-09-28, 03:04:05,VALID,917.307,VALID,0,VALID,94.2026,VALID,0,VALID,18.5539,VALID,119,VALID,0,
2013-09-28, 03:05:05,VALID,917.295,VALID,0,VALID,94.1949,VALID,0,VALID,18.5539,VALID,102,VALID,0,
2013-09-28, 03:06:05,VALID,917.283,VALID,0,VALID,94.1644,VALID,0,VALID,18.5539,VALID,102,VALID,0,
2013-09-28, 03:07:05,VALID,917.253,VALID,0,VALID,94.1949,VALID,0,VALID,18.5929,VALID,109,VALID,0,
2013-09-28, 03:08:05,VALID,917.23,VALID,0,VALID,94.1873,VALID,0,VALID,18.6319,VALID,109,VALID,0,
2013-09-28, 03:09:05,VALID,917.25,VALID,0,VALID,94.1721,VALID,0,VALID,18.6708,VALID,109,VALID,0,
2013-09-28, 03:10:05,VALID,917.233,VALID,0,VALID,94.1644,VALID,0,VALID,18.7503,VALID,113,VALID,0,
2013-09-28, 03:11:05,VALID,917.172,VALID,0,VALID,93.9434,VALID,0,VALID,18.7488,VALID,113,VALID,0,
2013-09-28, 03:12:05,VALID,917.177,VALID,0,VALID,93.8976,VALID,0,VALID,18.7488,VALID,110,VALID,0,
2013-09-28, 03:13:05,VALID,917.142,VALID,0,VALID,93.5317,VALID,0,VALID,18.7488,VALID,104,VALID,0,
2013-09-28, 03:14:05,VALID,917.11,VALID,0,VALID,93.5927,VALID,0,VALID,18.7098,VALID,102,VALID,0,
2013-09-28, 03:15:05,VALID,917.103,VALID,0,VALID,93.7909,VALID,0,VALID,18.7308,VALID,102,VALID,0,
2013-09-28, 03:16:05,VALID,917.114,VALID,0,VALID,93.9967,VALID,0,VALID,18.7503,VALID,102,VALID,0,
2013-09-28, 03:17:05,VALID,917.114,VALID,0,VALID,93.8138,VALID,0,VALID,18.7293,VALID,102,VALID,0,
2013-09-28, 03:18:05,VALID,917.122,VALID,0,VALID,94.1721,VALID,0,VALID,18.7878,VALID,102,VALID,0,
2013-09-28, 03:19:05,VALID,917.083,VALID,0,VALID,94.1721,VALID,0,VALID,18.9062,VALID,102,VALID,0,
2013-09-28, 03:20:05,VALID,917.077,VALID,0,VALID,93.9434,VALID,0,VALID,18.9647,VALID,102,VALID,0,
2013-09-28, 03:21:05,VALID,917.075,VALID,0,VALID,93.7147,VALID,0,VALID,19.0037,VALID,102,VALID,0,
2013-09-28, 03:22:05,VALID,917.065,VALID,0,VALID,93.4707,VALID,0,VALID,19.0413,VALID,102,VALID,0,
2013-09-28, 03:23:05,VALID,917.091,VALID,0,VALID,93.0667,VALID,0,VALID,19.0427,VALID,110,VALID,0,
2013-09-28, 03:24:05,VALID,917.121,VALID,0,VALID,92.5864,VALID,0,VALID,18.9243,VALID,128,VALID,0,
2013-09-28, 03:25:05,VALID,917.117,VALID,0,VALID,92.3424,VALID,0,VALID,18.8073,VALID,136,VALID,0,
2013-09-28, 03:26:05,VALID,917.143,VALID,0,VALID,92.3577,VALID,0,VALID,18.6903,VALID,139,VALID,0,
2013-09-28, 03:27:05,VALID,917.15,VALID,0,VALID,92.4873,VALID,0,VALID,18.6333,VALID,139,VALID,0,
2013-09-28, 03:28:05,VALID,917.153,VALID,0,VALID,92.7084,VALID,0,VALID,18.5539,VALID,139,VALID,0,
2013-09-28, 03:29:05,VALID,917.114,VALID,0,VALID,93.0972,VALID,0.107441,VALID,18.494,VALID,130,VALID,0,
2013-09-28, 03:30:04,VALID,917.114,VALID,0,VALID,93.5317,VALID,0.107441,VALID,18.455,VALID,132,VALID,0,
2013-09-28, 03:31:04,VALID,917.108,VALID,0,VALID,93.9281,VALID,0,VALID,18.416,VALID,129,VALID,0,
2013-09-28, 03:32:04,VALID,917.091,VALID,0,VALID,94.2712,VALID,0,VALID,18.416,VALID,121,VALID,0,
2013-09-28, 03:33:04,VALID,917.068,VALID,0,VALID,94.3703,VALID,0.107441,VALID,18.3965,VALID,111,VALID,0,
2013-09-28, 03:34:04,VALID,917.057,VALID,0,VALID,94.4236,VALID,0.107441,VALID,18.3965,VALID,115,VALID,0,
2013-09-28, 03:35:04,VALID,917.035,VALID,0,VALID,94.477,VALID,0,VALID,18.3979,VALID,114,VALID,0,
2013-09-28, 03:36:04,VALID,916.999,VALID,0,VALID,94.6676,VALID,0.107441,VALID,18.4174,VALID,113,VALID,0,
2013-09-28, 03:37:04,VALID,916.973,VALID,0,VALID,94.8048,VALID,0,VALID,18.4564,VALID,119,VALID,0,
2013-09-28, 03:38:04,VALID,916.957,VALID,0,VALID,94.7896,VALID,0.107441,VALID,18.4355,VALID,121,VALID,0,
2013-09-28, 03:39:04,VALID,916.965,VALID,0,VALID,94.7133,VALID,0,VALID,18.4564,VALID,125,VALID,0,
2013-09-28, 03:40:04,VALID,916.951,VALID,0,VALID,94.599,VALID,0,VALID,18.416,VALID,125,VALID,0,
2013-09-28, 03:41:04,VALID,916.988,VALID,0,VALID,94.6218,VALID,0.107441,VALID,18.416,VALID,128,VALID,0,
2013-09-28, 03:42:04,VALID,916.945,VALID,0,VALID,94.6218,VALID,0.107441,VALID,18.4174,VALID,128,VALID,0,
2013-09-28, 03:43:04,VALID,916.944,VALID,0,VALID,94.5456,VALID,0.107441,VALID,18.3979,VALID,124,VALID,0,
2013-09-28, 03:44:04,VALID,916.944,VALID,0,VALID,94.5685,VALID,0.107441,VALID,18.377,VALID,124,VALID,0,
2013-09-28, 03:45:04,VALID,916.962,VALID,0,VALID,94.5609,VALID,0,VALID,18.3589,VALID,125,VALID,0,
2013-09-28, 03:46:04,VALID,916.953,VALID,0,VALID,94.6371,VALID,0.107441,VALID,18.3185,VALID,125,VALID,0,
2013-09-28, 03:47:04,VALID,916.944,VALID,0,VALID,94.6981,VALID,0,VALID,18.299,VALID,125,VALID,0,
2013-09-28, 03:48:04,VALID,916.949,VALID,0,VALID,94.7896,VALID,0.107441,VALID,18.3185,VALID,125,VALID,0,
2013-09-28, 03:49:04,VALID,916.936,VALID,0,VALID,94.8582,VALID,0.107441,VALID,18.338,VALID,125,VALID,0,
2013-09-28, 03:50:04,VALID,916.958,VALID,0,VALID,94.8505,VALID,0,VALID,18.3185,VALID,125,VALID,0,
2013-09-28, 03:51:04,VALID,916.942,VALID,0,VALID,94.8429,VALID,0.107441,VALID,18.3185,VALID,125,VALID,0,
2013-09-28, 03:52:04,VALID,916.947,VALID,0,VALID,94.8277,VALID,0,VALID,18.3185,VALID,125,VALID,0,
2013-09-28, 03:53:04,VALID,916.94,VALID,0,VALID,94.7591,VALID,0,VALID,18.299,VALID,125,VALID,0,
2013-09-28, 03:54:04,VALID,916.911,VALID,0,VALID,94.6905,VALID,0,VALID,18.2796,VALID,125,VALID,0,
2013-09-28, 03:55:04,VALID,916.911,VALID,0,VALID,94.8734,VALID,0.107441,VALID,18.338,VALID,125,VALID,0,
2013-09-28, 03:56:04,VALID,916.941,VALID,0,VALID,94.9954,VALID,0,VALID,18.377,VALID,125,VALID,0,
2013-09-28, 03:57:04,VALID,916.956,VALID,0,VALID,95.0106,VALID,0,VALID,18.3784,VALID,125,VALID,0,